Regional Weather Roundup
Issued by NWS

Home | Current Version | Previous Version | Text Only | Print | Product List | Glossary Off
Versions: 1 2 3 4 5 6 7 8 9 10 11 12 13 14 15 16 17 18 19 20 21 22 23 24 25 26 27 28 29 30 31 32 33 34 35 36 37 38 39 40 41 42 43 44 45 46 47 48 49 50

000
ASUS43 KMPX 282101
RWRMN
WEATHER ROUNDUP FOR MINNESOTA
NATIONAL WEATHER SERVICE TWIN CITIES/CHANHASSEN MN
400 PM CDT TUE JUL 28 2015


NOTE: "FAIR" INDICATES FEW OR NO CLOUDS BELOW 12,000 FEET WITH NO
SIGNIFICANT WEATHER AND/OR OBSTRUCTIONS TO VISIBILITY. N/A MEANS
CURRENT SKY AND/OR WEATHER CONDITIONS ARE NOT AVAILABLE.

MNZ060>063-068>070-282200-
   Twin Cities Metro

CITY           SKY/WX    TMP DP  RH WIND       PRES   REMARKS
TWIN CITIES    CLOUDY    83  70  64 SW9       29.81F
ST PAUL        CLOUDY    82  71  69 SW12      29.81S
BLAINE         CLOUDY    84  72  65 S13G18    29.81F
LAKEVILLE      CLOUDY    82  72  69 SW6       29.82S
EDEN PRAIRIE   CLOUDY    82  71  69 SW10      29.80F
SOUTH ST PAUL  CLOUDY    84  71  65 SW8       29.81F
LAKE ELMO      CLOUDY    82  73  74 SW9       29.83F
$$
MNZ001>005-007-008-013>017-022>024-027-028-282200-
   Northwest Minnesota

CITY           SKY/WX    TMP DP  RH WIND       PRES   REMARKS
BEMIDJI        SUNNY     80  59  47 SW14G23   29.71S
HALLOCK        PTSUNNY   75  55  50 SW23G33   29.57S
ROSEAU         SUNNY     79  64  61 SW22G32   29.61R
WARROAD        MOSUNNY   79  66  65 SW24G30   29.60R
THIEF RVR FALL PTSUNNY   73  57  56 SW20G29   29.67R
CROOKSTON      PTSUNNY   75  57  53 W25G32    29.67S
FOSSTON        MOSUNNY   75  63  64 SW25      29.72R
DETROIT LAKES  SUNNY     77  55  47 SW15G28   29.78R
MOORHEAD       MOSUNNY   79  55  44 SW17G28   29.74R
PARK RAPIDS    SUNNY     81  58  45 SW18G26   29.75S
MAHNOMEN       MOCLDY    75  60  60 SW17G25   29.72S
$$
MNZ006-009>011-018-025>026-282200-
   North Central Minnesota

CITY           SKY/WX    TMP DP  RH WIND       PRES   REMARKS
BAUDETTE       MOSUNNY   80  65  59 S22G30    29.61F
FLAG ISLAND    MOSUNNY   79  66  65 S14G24    29.55S
INTL FALLS     CLOUDY    79  69  71 SW14G22   29.67R
WASKISH        MOSUNNY   81  66  61 S14G20    29.66S
LONGVILLE      CLOUDY    79  66  65 S9        29.75S
GRAND RAPIDS   PTSUNNY   81  66  61 S13G20    29.76S
CRANE LAKE     PTSUNNY   79  66  65 S6G16     29.73R
ORR            CLOUDY    79  63  57 SW7G18    29.72R
COOK           PTSUNNY   81  66  61 SW14G20   29.75S
WALKER         FAIR      80  67  63 SW12G18   29.72F
$$
MNZ012-019>021-037-282200-
   Northeast Minnesota

CITY           SKY/WX    TMP DP  RH WIND       PRES   REMARKS
DULUTH         PTSUNNY   84  68  58 SW14      29.79S
ELY            PTSUNNY   82  63  51 SW13G22   29.76S
HIBBING        CLOUDY    80  66  62 SW10      29.76F
EVELETH        PTSUNNY   81  64  57 SW13      29.78S
DULUTH HARBOR  PTSUNNY   88  70  55 SW20G25   29.76S HX  92
TWO HARBORS    PTSUNNY   86  72  62 S17       29.76F HX  92
SILVER BAY     PTSUNNY   86  68  54 S14G25    29.76S
GRAND MARAIS     N/A     69  60  73 NE6       29.80F
G MARAIS ARPRT PTSUNNY   70  61  73 SE6       29.86S
$$
MNZ029>031-032-039>041-046>048-054>057-064-282200-
   West Central Minnesota

CITY           SKY/WX    TMP DP  RH WIND       PRES   REMARKS
FERGUS FALLS   MOSUNNY   77  57  50 SW17G28   29.78R
WHEATON        SUNNY     75  57  53 SW21      29.82S
MORRIS         SUNNY     79  61  53 W16G22    29.81S
ALEXANDRIA     PTSUNNY   79  62  56 SW17G24   29.81S
ELBOW LAKE     FAIR      77  60  56 W18       29.80S
WADENA         SUNNY     79  63  57 W16       29.76S
GLENWOOD       MOSUNNY   81  64  57 W17G23    29.82S
APPLETON       SUNNY     81  57  44 W15G23    29.82R
BENSON         SUNNY     81  57  44 NW14      29.81S
ORTONVILLE     SUNNY     79  55  44 W17G23    29.84R
MADISON        SUNNY     79  57  47 W15       29.84S
WILLMAR        PTSUNNY   81  72  74 W15       29.83R
$$
MNZ033>034-036-042>043-049>051-058-059-282200-
   Central Minnesota

CITY           SKY/WX    TMP DP  RH WIND       PRES   REMARKS
ST CLOUD       PTSUNNY   81  70  69 SW10      29.79F
SAUK CENTRE    CLOUDY    76  69  78 SW8G17    29.80F
PAYNESVILLE    CLOUDY    78  69  73 S9        29.81S
PINE RIVER     CLOUDY    79  66  65 SW14G22   29.79S
BRAINERD       CLOUDY    79  68  69 S14       29.78S
STAPLES        PTSUNNY   81  66  61 SW12G17   29.77F
LONG PRAIRIE   CLOUDY    75  68  78 S10       29.80F
LITTLE FALLS   PTSUNNY   77  66  69 SW7       29.79S
LITCHFIELD     SUNNY     82  73  74 SW8       29.81F
BUFFALO        CLOUDY    81  70  69 S7        29.81F
$$
MNZ037-044-045-052-053-282200-
   East Central Minnesota

CITY           SKY/WX    TMP DP  RH WIND       PRES   REMARKS
PRINCETON      PTSUNNY   82  72  69 S9        29.80F
MORA           PTSUNNY   79  64  61 SW10G16   29.82S
CAMBRIDGE      CLOUDY    82  68  61 SW8       29.79F
RUSH CITY      PTSUNNY   81  69  66 SW12      29.81F
MOOSE LAKE     PTSUNNY   81  68  65 SW12G18   29.77S
HINCKLEY       MOCLDY    81  70  69 SW9       29.80F
CLOQUET        PTSUNNY   82  64  54 SW12G20   29.79F
MCGREGOR       CLOUDY    79  68  69 S16G22    29.79S
$$
MNZ071>073-080-081-089-090-097-098-282200-
   Southwest Minnesota

CITY           SKY/WX    TMP DP  RH WIND       PRES   REMARKS
MONTEVIDEO     SUNNY     82  66  57 NW12G18   29.84S
GRANITE FALLS  SUNNY     81  63  54 W10G17    29.85R
CANBY          SUNNY     80  58  46 W15       29.87R
MARSHALL       SUNNY     81  59  47 NW16G23   29.86R
REDWOOD FALLS  CLOUDY    80  69  69 W15G22    29.83R
OLIVIA         CLOUDY    77  68  73 W15       29.82S
PIPESTONE      SUNNY     79  61  53 W14G20    29.90R
WINDOM         CLOUDY    77  70  78 SW7       29.88R
WORTHINGTON    CLOUDY    75  66  73 W10       29.90R
JACKSON        CLOUDY    77  72  83 W14       29.90R
SLAYTON        SUNNY     79  58  48 W13       29.91R
$$
MNZ065>067-074>077-082>085-091>093-282200-
   South Central Minnesota

CITY           SKY/WX    TMP DP  RH WIND       PRES   REMARKS
MANKATO        CLOUDY    81  72  74 SW12      29.83F
NEW ULM        PTSUNNY   81  72  74 SW13G20   29.83R
ST JAMES       PTSUNNY   82  73  74 SW12      29.86R
FAIRMONT       CLOUDY    81  68  65 SW15      29.87R
GLENCOE        CLOUDY    82  74  77 S8        29.81S
FARIBAULT      MOSUNNY   82  72  69 SW9       29.84S
OWATONNA       MOSUNNY   82  72  69 S15       29.85S
WASECA         CLOUDY    79  70  73 SW10G20   29.86F
ALBERT LEA     PTSUNNY   81  73  78 SW9G16    29.87R
$$
MNZ078>079-086>088-094>096-282200-
   Southeast Minnesota

CITY           SKY/WX    TMP DP  RH WIND       PRES   REMARKS
ROCHESTER      MOSUNNY   82  73  74 SW20G26   29.88R
RED WING       MOSUNNY   88  72  58 SW12G17   29.81S HX  94
STANTON        MOSUNNY   85  72  66 SW9G17    29.82S HX  90
DODGE CENTER   MOSUNNY   82  73  74 SW15      29.87S
WINONA         SUNNY     82  72  69 SW7       29.84R
AUSTIN         PTSUNNY   81  73  78 SW12G20   29.87S
PRESTON        SUNNY     82  69  65 SW14G22   29.89R
$$
ABBREVIATIONS USED IN REMARKS
   TC - TEMPERATURES IN CELSIUS
  WCI - WIND CHILL INDEX
   HX - HEAT INDEX
  VSB - VISIBILITY
$$



USA.gov is the U.S. government's official web portal to all federal, state and local government web resources and services.